Regional Weather Roundup
Issued by NWS

Home | Current Version | Previous Version | Text Only | Print | Product List | Glossary Off
Versions: 1 2 3 4 5 6 7 8 9 10 11 12 13 14 15 16 17 18 19 20 21 22 23 24 25 26 27 28 29 30 31 32 33 34 35 36 37 38 39 40 41 42 43 44 45 46 47 48 49 50

000
ASUS45 KPSR 261100
RWRAZ

ARIZONA REGIONAL HOURLY WEATHER ROUNDUP
NATIONAL WEATHER SERVICE PHOENIX AZ
400 AM MST SUN APR 26 2015

NOTE: FAIR INDICATES FEW OR NO CLOUDS BELOW 12,000 FEET WITH NO
SIGNIFICANT WEATHER AND/OR OBSTRUCTIONS TO VISIBILITY.

AZZ001>003-036-261200-
NORTHWEST ARIZONA

CITY           SKY/WX    TMP DP  RH WIND       PRES   REMARKS
KINGMAN        PTCLDY    39  36  89 CALM      29.81R
$$

AZZ004>008-015-016-018-261200-
NORTH CENTRAL ARIZONA

CITY           SKY/WX    TMP DP  RH WIND       PRES   REMARKS
GRAND CANYON   FOG       35  34  96 SW5       29.78R VSB 1/2 WCI  31
WILLIAMS       CLOUDY    34  32  93 W5        29.84S FOG     WCI  30
PRESCOTT       LGT RAIN  42  36  79 CALM      29.78R
FLAGSTAFF      NOT AVBL
PAYSON         CLOUDY    41  39  93 W3        29.79S
PAGE           PTCLDY    46  39  76 CALM      29.73R
$$

AZZ009>014-017-261200-
NORTHEAST ARIZONA

CITY           SKY/WX    TMP DP  RH WIND       PRES   REMARKS
WINSLOW        NOT AVBL
SAINT JOHNS    CLOUDY    40  36  86 SW5       29.75R
WINDOW ROCK    LGT RAIN  37  34  89 S6        29.76F WCI  32
SHOW LOW       CLOUDY    32  32 100 SW13      29.78F WCI  22
$$

AZZ023-261200-
GREATER PHOENIX AREA

CITY           SKY/WX    TMP DP  RH WIND       PRES   REMARKS
PHOENIX        CLOUDY    57  51  80 SE7       29.74F
DEER VALLEY    CLOUDY    54  51  90 SE5       29.75S
SCOTTSDALE     CLOUDY    54  50  86 SE3       29.77S
$$

AZZ027-028-261200-
SOUTHWEST MARICOPA COUNTY AND PINAL COUNTY

CITY           SKY/WX    TMP DP  RH WIND       PRES   REMARKS
CASA GRANDE    MOCLDY    55  48  76 CALM      29.77F
$$

AZZ503-504-507>509-261200-
SOUTHEAST ARIZONA

CITY           SKY/WX    TMP DP  RH WIND       PRES   REMARKS
TUCSON         LGT RAIN  52  49  89 W9        29.86R
DAVIS-MONTHAN  LGT RAIN  52  48  87 NW10      29.83R
NOGALES        HVY RAIN  48  45  89 W7        29.86R FOG
SAFFORD        HVY RAIN  48  46  93 N12       29.79S FOG
$$

AZZ020-021-025-026-031-261200-
SOUTHWEST ARIZONA

CITY           SKY/WX    TMP DP  RH WIND       PRES   REMARKS
YUMA           NOT AVBL
$$

CAZ031-033-041-043-047-048-061-261200-
SOUTHERN CALIFORNIA

CITY           SKY/WX    TMP DP  RH WIND       PRES   REMARKS
DOWNTOWN L.A.  PTCLDY    56  50  80 CALM      29.93R
L.A. AIRPORT   PTCLDY    53  50  89 E3        29.93R
SAN DIEGO      MOCLDY    61  49  64 CALM      29.97R
BURBANK        PTCLDY    61  40  45 N14       29.92R
ONTARIO        MOCLDY    52  50  93 N5        29.93R
RIVERSIDE      CLEAR     52  49  89 CALM      29.94R
PALM SPRINGS   CLEAR     62  40  44 SW5       29.84R
EL CENTRO NAS  CLEAR     59  42  53 W7        29.83S
IMPERIAL       CLEAR     58  44  60 W8        29.81S
BLYTHE         CLEAR     66  35  31 W20       29.77S
$$

NVZ020-UTZ003-261200-
SOUTHERN NEVADA-UTAH

CITY           SKY/WX    TMP DP  RH WIND       PRES   REMARKS
LAS VEGAS      NOT AVBL
SALT LAKE CITY RAIN      39  36  89 N25G32    29.82R WCI  28
$$

NMZ009-TXZ055-261200-
NEW MEXICO-WEST TEXAS

CITY           SKY/WX    TMP DP  RH WIND       PRES   REMARKS
ALBUQUERQUE    LGT RAIN  53  36  52 SE6       29.75F
EL PASO        CLOUDY    63  24  22 SW10G20   29.77F
$$


........................KEY........................
SKY/WX - SKY CONDITION/WEATHER
TMP    - TEMPERATURE IN FAHRENHEIT
DP     - DEW POINT IN FAHRENHEIT
RH     - RELATIVE HUMIDITY IN PERCENT
WIND   - DIRECTION AND SPEED IN MILES PER HOUR (MPH)
VRB    - VARIABLE WIND DIRECTION
PRES   - MEAN SEA LEVEL PRESSURE IN INCHES OF MERCURY
         F - FALLING PRESSURE   R - RISING PRESSURE
         S - STEADY PRESSURE
VSB    - VISIBILITY IN MILES
HX     - HEAT INDEX IN FAHRENHEIT
WCI    - WIND CHILL INDEX IN FAHRENHEIT
TC     - TEMPERATURE IN CELSIUS WHICH IS ALSO KNOWN AS
         TEMPERATURE IN CENTIGRADE
AFB    - AIR FORCE BASE
         LUKE AFB IS LUKE AIR FORCE BASE
         DAVIS-MONTHAN IS DAVIS-MONTHAN AIR FORCE BASE
NAS    - NAVAL AIR STATION
         EL CENTRO NAS IS EL CENTRO NAVAL AIR STATION
N/A    - NOT AVAILABLE




USA.gov is the U.S. government's official web portal to all federal, state and local government web resources and services.